This is the latest recevied weather packets stored in our database for station/object W4TJP. If no packets are shown the sender has not sent any weather packets the latest 10 day(s).
| Time | Temp. | Humidity | Pressure | Rain* | Wind** | Luminosity | Snow |
|---|---|---|---|---|---|---|---|
| 1777670122 | 17.22° C | 55% | 1012.7 hPa | 0 mm | - | 151 W/m² | - |
| 1777669821 | 17.22° C | 55% | 1012.5 hPa | 0 mm | - | 139 W/m² | - |
| 1777669516 | 17.78° C | 56% | 1012.7 hPa | 0 mm | - | 158 W/m² | - |
| 1777669213 | 17.78° C | 55% | 1012.7 hPa | 0 mm | - | 177 W/m² | - |
| 1777668910 | 17.78° C | 56% | 1012.6 hPa | 0 mm | - | 134 W/m² | - |
| 1777668608 | 17.78° C | 54% | 1012.5 hPa | 0 mm | - | 157 W/m² | - |
| 1777668303 | 17.78° C | 57% | 1012.8 hPa | 0 mm | - | 206 W/m² | - |
| 1777667999 | 17.78° C | 55% | 1012.8 hPa | 0 mm | - | 162 W/m² | - |
| 1777667696 | 18.33° C | 53% | 1013.1 hPa | 0 mm | - | 124 W/m² | - |
| 1777667394 | 18.33° C | 56% | 1013.2 hPa | 0 mm | - | 264 W/m² | - |
| 1777667090 | 17.78° C | 53% | 1013.3 hPa | 0 mm | - | 218 W/m² | - |
| 1777666787 | 17.78° C | 54% | 1013.2 hPa | 0 mm | - | 135 W/m² | - |
| 1777666484 | 17.78° C | 51% | 1013.5 hPa | 0 mm | - | 128 W/m² | - |
| 1777666181 | 18.33° C | 49% | 1013.7 hPa | 0 mm | - | 242 W/m² | - |
| 1777665878 | 18.33° C | 52% | 1013.4 hPa | 0 mm | - | 154 W/m² | - |
| 1777665575 | 18.89° C | 52% | 1013.6 hPa | 0 mm | - | 319 W/m² | - |
| 1777665272 | 19.44° C | 47% | 1013.7 hPa | 0 mm | - | 367 W/m² | - |
| 1777664967 | 19.44° C | 47% | 1013.6 hPa | 0 mm | - | 389 W/m² | - |
| 1777664664 | 19.44° C | 46% | 1013.7 hPa | 0 mm | - | 591 W/m² | - |
| 1777664360 | 19.44° C | 46% | 1013.9 hPa | 0 mm | - | 432 W/m² | - |
| 1777664058 | 19.44° C | 44% | 1013.6 hPa | 0 mm | - | 530 W/m² | - |
| 1777663756 | 19.44° C | 46% | 1013.7 hPa | 0 mm | - | 506 W/m² | - |
| 1777663453 | 20° C | 47% | 1013.8 hPa | 0 mm | - | 244 W/m² | - |
| 1777663150 | 20° C | 46% | 1013.8 hPa | 0 mm | - | 642 W/m² | - |
| 1777662847 | 20° C | 47% | 1013.7 hPa | 0 mm | - | 359 W/m² | - |
* Rain latest hour (hover to see other rain measurements)
** Current wind speed in m/s (hover to see current wind gust speed)